• In Belarus
  • List of Countries
  • For 7 days
  • Water Temperature
  • Satellite Maps
  • Weather Map
  • Weather Widgets
  • user-avatar
    Login

    Hourly Weather Chhatarpur

    Today, 18 January, Friday

    Time Temperature Precipitation Wind Pressure Humidity
    00:00 +14°C° 0 mm 1 mps 735 mmHg 45%
    01:00 +13°C° 0 mm 1 mps 735 mmHg 48%
    02:00 +13°C° 0 mm 1 mps 734 mmHg 51%
    03:00 +12°C° 0 mm 1 mps 735 mmHg 53%
    04:00 +12°C° 0 mm 1 mps 735 mmHg 55%
    05:00 +11°C° 0 mm 1 mps 735 mmHg 57%
    06:00 +12°C° 0 mm 1 mps 735 mmHg 54%
    07:00 +13°C° 0 mm 1 mps 736 mmHg 51%
    08:00 +14°C° 0 mm 1 mps 736 mmHg 48%
    09:00 +17°C° 0 mm 2 mps 736 mmHg 39%
    10:00 +20°C° 0 mm 2 mps 736 mmHg 30%
    11:00 +24°C° 0 mm 2 mps 737 mmHg 23%
    12:00 +25°C° 0 mm 2 mps 736 mmHg 20%
    13:00 +26°C° 0 mm 2 mps 735 mmHg 17%
    14:00 +27°C° 0 mm 2 mps 735 mmHg 14%
    15:00 +26°C° 0 mm 2 mps 734 mmHg 16%
    16:00 +24°C° 0 mm 2 mps 734 mmHg 17%
    17:00 +21°C° 0 mm 2 mps 734 mmHg 19%
    18:00 +20°C° 0 mm 2 mps 734 mmHg 23%
    19:00 +19°C° 0 mm 1 mps 734 mmHg 27%
    20:00 +18°C° 0 mm 1 mps 735 mmHg 31%
    21:00 +16°C° 0 mm 1 mps 735 mmHg 35%
    22:00 +15°C° 0 mm 1 mps 735 mmHg 39%
    23:00 +14°C° 0 mm 1 mps 735 mmHg 42%

    Tomorrow, 19 January, Saturday

    Time Temperature Precipitation Wind Pressure Humidity
    00:00 +13°C° 0 mm 0 mps 735 mmHg 45%
    01:00 +13°C° 0 mm 0 mps 735 mmHg 48%
    02:00 +12°C° 0 mm 0 mps 734 mmHg 50%
    03:00 +12°C° 0 mm 0 mps 734 mmHg 52%
    04:00 +11°C° 0 mm 0 mps 735 mmHg 53%
    05:00 +11°C° 0 mm 0 mps 735 mmHg 55%
    06:00 +12°C° 0 mm 0 mps 735 mmHg 51%
    07:00 +14°C° 0 mm 0 mps 736 mmHg 47%
    08:00 +15°C° 0 mm 0 mps 736 mmHg 42%
    09:00 +18°C° 0 mm 0 mps 737 mmHg 34%
    10:00 +23°C° 0 mm 1 mps 737 mmHg 26%
    11:00 +26°C° 0 mm 1 mps 737 mmHg 18%
    12:00 +27°C° 0 mm 1 mps 736 mmHg 16%
    13:00 +28°C° 0 mm 2 mps 736 mmHg 14%
    14:00 +29°C° 0 mm 3 mps 735 mmHg 11%
    15:00 +28°C° 0 mm 2 mps 735 mmHg 13%
    16:00 +26°C° 0 mm 2 mps 735 mmHg 15%
    17:00 +25°C° 0 mm 2 mps 734 mmHg 17%
    18:00 +23°C° 0 mm 2 mps 735 mmHg 20%
    19:00 +20°C° 0 mm 2 mps 735 mmHg 24%
    20:00 +18°C° 0 mm 2 mps 735 mmHg 27%
    21:00 +18°C° 0 mm 1 mps 735 mmHg 30%
    22:00 +18°C° 0 mm 1 mps 735 mmHg 33%
    23:00 +16°C° 0 mm 1 mps 735 mmHg 35%

    Day after tomorrow, 20 January, Sunday

    Time Temperature Precipitation Wind Pressure Humidity
    00:00 +16°C° 0 mm 1 mps 735 mmHg 36%
    01:00 +15°C° 0 mm 1 mps 735 mmHg 37%
    02:00 +14°C° 0 mm 0 mps 735 mmHg 39%
    03:00 +13°C° 0 mm 0 mps 735 mmHg 39%
    04:00 +13°C° 0 mm 0 mps 734 mmHg 40%
    05:00 +13°C° 0 mm 0 mps 734 mmHg 40%
    06:00 +14°C° 0 mm 0 mps 735 mmHg 37%
    07:00 +16°C° 0 mm 0 mps 736 mmHg 34%
    08:00 +17°C° 0 mm 0 mps 737 mmHg 30%
    09:00 +20°C° 0 mm 0 mps 737 mmHg 25%
    10:00 +23°C° 0 mm 0 mps 737 mmHg 21%
    11:00 +26°C° 0 mm 0 mps 737 mmHg 16%
    12:00 +29°C° 0 mm 1 mps 736 mmHg 15%
    13:00 +30°C° 0 mm 1 mps 735 mmHg 14%
    14:00 +31°C° 0 mm 2 mps 735 mmHg 13%
    15:00 +29°C° 0 mm 2 mps 734 mmHg 15%
    16:00 +28°C° 0 mm 2 mps 734 mmHg 16%
    17:00 +27°C° 0 mm 2 mps 734 mmHg 18%
    18:00 +25°C° 0 mm 2 mps 734 mmHg 21%
    19:00 +23°C° 0 mm 2 mps 735 mmHg 24%
    20:00 +20°C° 0 mm 2 mps 735 mmHg 28%
    21:00 +20°C° 0 mm 2 mps 735 mmHg 28%
    22:00 +19°C° 0 mm 2 mps 735 mmHg 29%
    23:00 +18°C° 0 mm 2 mps 735 mmHg 30%

    21 January, Monday

    Time Temperature Precipitation Wind Pressure Humidity
    00:00 +18°C° 0 mm 2 mps 734 mmHg 30%
    01:00 +18°C° 0 mm 2 mps 734 mmHg 29%
    02:00 +18°C° 0 mm 2 mps 734 mmHg 29%
    03:00 +17°C° 0 mm 2 mps 734 mmHg 29%
    04:00 +17°C° 0 mm 2 mps 734 mmHg 29%
    05:00 +17°C° 0 mm 2 mps 733 mmHg 30%
    06:00 +18°C° 0 mm 2 mps 734 mmHg 28%
    07:00 +19°C° 0 mm 2 mps 735 mmHg 26%
    08:00 +20°C° 0 mm 2 mps 735 mmHg 24%
    09:00 +24°C° 0 mm 3 mps 735 mmHg 21%
    10:00 +28°C° 0 mm 3 mps 735 mmHg 17%
    11:00 +32°C° 0 mm 4 mps 735 mmHg 13%
    12:00 +33°C° 0 mm 4 mps 734 mmHg 13%
    13:00 +34°C° 0 mm 4 mps 733 mmHg 12%
    14:00 +35°C° 0 mm 4 mps 732 mmHg 12%
    15:00 +33°C° 0 mm 4 mps 732 mmHg 14%
    16:00 +31°C° 0 mm 3 mps 732 mmHg 15%
    17:00 +30°C° 0 mm 3 mps 731 mmHg 17%
    18:00 +28°C° 0 mm 3 mps 732 mmHg 19%
    19:00 +26°C° 0 mm 3 mps 732 mmHg 22%
    20:00 +24°C° 0 mm 3 mps 732 mmHg 24%
    21:00 +24°C° 0 mm 3 mps 732 mmHg 26%
    22:00 +23°C° 0 mm 2 mps 732 mmHg 28%
    23:00 +23°C° 0 mm 2 mps 732 mmHg 30%

    22 January, Tuesday

    Time Temperature Precipitation Wind Pressure Humidity
    00:00 +21°C° 0 mm 2 mps 732 mmHg 31%
    01:00 +22°C° 0 mm 1 mps 731 mmHg 33%
    02:00 +21°C° 0 mm 1 mps 731 mmHg 34%
    03:00 +21°C° 0 mm 1 mps 731 mmHg 38%
    04:00 +20°C° 0 mm 1 mps 731 mmHg 41%
    05:00 +19°C° 0 mm 1 mps 731 mmHg 44%
    06:00 +20°C° 0 mm 1 mps 732 mmHg 43%
    07:00 +18°C° 0 mm 0 mps 733 mmHg 42%
    08:00 +19°C° 0 mm 0 mps 733 mmHg 41%
    09:00 +22°C° 0.1 mm 0 mps 733 mmHg 37%
    10:00 +24°C° 0.1 mm 0 mps 733 mmHg 33%
    11:00 +28°C° 0.1 mm 1 mps 734 mmHg 29%
    12:00 +30°C° 0 mm 2 mps 733 mmHg 26%
    13:00 +31°C° 0 mm 3 mps 732 mmHg 23%
    14:00 +33°C° 0 mm 5 mps 731 mmHg 20%
    15:00 +32°C° 0 mm 4 mps 731 mmHg 20%
    16:00 +30°C° 0 mm 4 mps 731 mmHg 21%
    17:00 +29°C° 0 mm 4 mps 731 mmHg 22%
    18:00 +27°C° 0 mm 3 mps 732 mmHg 26%
    19:00 +25°C° 0 mm 2 mps 733 mmHg 29%
    20:00 +23°C° 0 mm 2 mps 733 mmHg 33%
    21:00 +21°C° 0 mm 2 mps 734 mmHg 38%
    22:00 +20°C° 0 mm 2 mps 734 mmHg 43%
    23:00 +19°C° 0 mm 2 mps 734 mmHg 47%

    23 January, Wednesday

    Time Temperature Precipitation Wind Pressure Humidity
    00:00 +18°C° 0 mm 2 mps 734 mmHg 49%
    01:00 +18°C° 0 mm 2 mps 734 mmHg 51%
    02:00 +17°C° 0 mm 2 mps 733 mmHg 53%
    03:00 +17°C° 0 mm 2 mps 733 mmHg 56%
    04:00 +16°C° 0 mm 2 mps 733 mmHg 59%
    05:00 +16°C° 0 mm 2 mps 733 mmHg 62%
    06:00 +17°C° 0 mm 2 mps 734 mmHg 59%
    07:00 +18°C° 0 mm 2 mps 735 mmHg 56%
    08:00 +19°C° 0 mm 2 mps 735 mmHg 53%
    09:00 +23°C° 0 mm 2 mps 735 mmHg 45%
    10:00 +25°C° 0 mm 2 mps 736 mmHg 37%
    11:00 +28°C° 0 mm 2 mps 736 mmHg 29%
    12:00 +29°C° 0 mm 2 mps 735 mmHg 26%
    13:00 +30°C° 0 mm 2 mps 734 mmHg 23%
    14:00 +31°C° 0 mm 1 mps 733 mmHg 21%
    15:00 +30°C° 0 mm 2 mps 733 mmHg 22%
    16:00 +29°C° 0 mm 2 mps 733 mmHg 23%
    17:00 +28°C° 0 mm 3 mps 733 mmHg 23%
    18:00 +26°C° 0 mm 3 mps 734 mmHg 29%
    19:00 +25°C° 0 mm 3 mps 734 mmHg 35%
    20:00 +22°C° 0 mm 4 mps 735 mmHg 41%
    21:00 +21°C° 0 mm 3 mps 735 mmHg 47%
    22:00 +20°C° 0 mm 3 mps 735 mmHg 53%
    23:00 +19°C° 0 mm 3 mps 735 mmHg 59%
    Show more